RH
27 26 27 29 27 28 25 24 30 54 50 48 61 71 86 89 80 83 85 87 85 73 80 82 90 85 86 86 81 82 84 85 83 81 93 95 86 94 93 96 90 90 97 98 93 93 94 72 65
25 27 28 36 25 28 24 20 49 49 41 73 71 74 74 80 69 78 82 92 84 74 89 85 83 80 83 87 83 82 83 83 84 80 82 90 86 94 92 95 94 92 96 94 84 70 60 63 65
27 27 35 38 31 25 24 18 20 39 44 44 53 56 59 70 61 77 86 90 77 70 87 84 83 81 87 88 83 82 82 81 82 82 88 89 89 94 92 88 96 88 74 72 62 53 47 44 52
26 30 33 24 18 15 17 17 17 17 17 44 52 63 63 77 78 89 84 84 77 71 79 84 81 78 81 80 82 84 81 80 80 82 86 86 89 86 85 88 86 84 77 63 62 57 48 43 41
28 32 28 26 17 17 18 18 17 17 33 50 50 62 71 77 94 98 92 74 76 73 74 72 85 82 79 82 82 83 78 75 72 76 71 82 87 79 79 82 81 84 83 82 62 56 56 52 45
41 30 29 25 17 18 19 19 18 20 26 40 62 62 62 72 89 94 98 77 67 77 74 91 79 80 79 79 78 80 75 67 68 79 80 85 79 71 75 78 80 80 80 81 82 73 62 57 55
36 32 27 24 18 21 19 21 19 20 38 40 53 60 58 69 90 90 96 92 82 64 79 96 80 69 77 82 82 81 79 80 80 81 82 84 83 83 82 84 84 82 82 81 82 85 83 73 62
46 34 27 24 20 21 20 20 18 19 20 27 49 57 54 62 89 86 87 88 97 79 84 88 85 83 90 79 87 86 83 84 85 85 88 89 85 81 79 78 81 84 84 82 82 84 84 84 82
32 32 32 20 21 19 24 20 17 18 18 35 48 52 56 77 83 80 80 79 84 86 85 86 88 89 86 85 85 91 94 91 88 88 87 86 87 87 84 84 84 84 84 88 89 83 85 84 83
38 33 27 19 21 23 26 24 22 21 21 33 54 62 72 81 76 71 69 65 61 63 75 79 72 64 64 80 77 89 96 98 93 90 88 87 82 78 79 69 74 82 86 86 85 88 88 88 87
30 24 25 23 28 27 24 25 26 23 25 27 48 68 68 66 62 63 58 54 54 54 52 50 51 54 63 78 82 96 97 91 91 86 80 85 84 84 85 83 82 87 80 87 88 89 88 90 95
28 25 26 24 29 27 25 27 28 27 24 20 29 62 65 66 65 60 58 54 54 53 51 48 48 49 49 61 61 54 53 64 82 86 87 82 83 76 89 78 72 70 64 64 64 62 59 75 83
28 28 32 28 34 32 29 32 30 32 28 26 40 62 66 66 61 54 53 52 54 53 51 49 46 43 46 52 49 44 43 45 50 55 60 61 60 62 65 65 67 70 71 67 62 60 59 60 63
33 35 37 34 33 32 32 31 28 26 25 31 54 63 64 63 60 62 58 55 53 52 50 46 41 40 41 41 41 41 41 42 40 41 43 44 45 48 51 55 58 60 63 64 65 67 67 63 62
32 32 32 26 32 30 28 29 33 30 28 28 51 59 60 61 59 61 55 54 52 52 49 46 43 42 40 40 40 40 41 43 43 43 40 39 39 42 45 47 48 50 51 51 55 64 72 74 77
34 29 32 22 34 31 23 38 24 24 28 30 47 57 58 58 55 56 54 54 54 50 49 48 45 42 40 42 44 45 47 45 49 50 49 48 48 50 52 55 56 60 58 55 55 61 62 62 61
46 42 32 30 34 32 28 34 23 24 29 32 39 53 56 59 53 57 56 54 54 49 50 49 47 44 42 45 50 54 56 56 57 55 54 54 52 54 59 64 68 69 68 66 67 70 75 70 71
36 37 34 32 25 32 39 38 34 30 28 32 32 40 52 60 55 51 55 57 52 51 50 48 47 47 48 50 56 60 60 60 59 59 60 59 57 58 63 68 69 70 71 70 71 72 73 75 78
33 35 38 33 26 29 36 38 33 34 35 38 36 33 45 58 49 48 56 59 54 53 51 48 46 48 48 52 55 57 60 64 64 64 62 60 62 62 62 63 68 73 75 79 78 75 76 74 74
32 36 43 36 32 38 41 43 30 31 35 33 32 36 35 54 56 61 64 62 55 52 51 50 47 49 52 49 45 54 65 66 61 63 66 68 68 68 68 69 69 68 71 77 78 78 79 80 77
37 39 40 42 48 40 45 40 30 28 29 26 28 33 32 48 54 62 66 64 57 54 51 49 49 48 50 49 47 60 68 63 64 66 67 70 70 71 71 72 74 75 76 76 80 80 82 84 78
44 41 45 50 58 54 39 53 39 34 33 29 37 42 38 51 51 59 61 65 59 55 52 51 49 45 47 51 54 56 62 57 70 72 75 74 74 76 76 75 74 75 77 76 79 78 80 84 92
44 41 45 47 63 68 54 80 46 30 29 33 38 43 43 52 54 58 58 61 61 58 56 53 50 51 51 54 56 52 54 62 74 77 77 77 79 78 79 78 76 75 74 75 79 80 82 84 87
43 41 53 78 81 82 56 56 45 32 33 40 41 49 50 44 53 56 55 61 67 62 61 60 59 61 58 55 52 52 56 69 76 78 76 75 78 81 79 80 78 76 75 76 78 81 82 83 87
41 48 73 74 82 74 51 60 48 37 36 40 50 55 56 49 60 65 70 72 75 70 68 66 63 65 62 57 57 58 64 68 68 70 74 77 77 78 78 78 78 77 76 75 74 75 82 82 80
52 41 74 62 77 80 59 61 42 36 43 45 52 58 62 61 64 67 71 72 79 80 74 71 67 66 64 61 61 64 67 70 72 75 76 77 79 82 81 79 80 80 78 74 75 80 83 83 82
52 68 50 63 66 88 64 50 34 41 39 46 58 65 74 78 70 74 77 78 82 79 74 69 68 66 63 60 61 67 72 72 75 78 80 79 82 82 82 82 82 82 81 83 86 86 84 83 82
50 47 67 75 72 70 62 62 57 40 40 45 57 69 75 85 87 89 87 84 82 76 73 71 67 65 63 59 64 69 74 75 76 79 80 80 82 83 84 88 87 86 87 87 88 87 84 82 80
69 66 62 66 72 80 83 64 48 44 42 43 53 62 69 84 93 94 89 82 78 76 76 73 69 66 63 63 65 69 73 77 77 80 81 81 83 86 94 94 92 92 90 89 90 91 90 91 91
55 60 62 77 74 90 86 71 38 44 42 42 54 58 70 82 91 92 87 84 83 80 78 74 71 67 65 67 71 75 76 75 77 78 81 83 84 87 94 93 92 93 90 91 93 94 95 100 97
Wind_Speed
9 6 4 4 4 5 2 2 1 3 3 3 4 5 6 3 2 3 9 8 13 17 18 15 13 13 15 16 15 14 14 13 12 13 13 12 11 11 11 12 11 11 11 13 11 10 10 11 11
7 4 3 2 5 4 4 4 1 2 2 6 6 3 4 3 2 1 5 6 13 17 16 15 15 15 14 15 15 15 13 13 12 13 13 11 10 10 10 11 10 10 10 9 9 9 9 9 10
2 4 4 4 3 3 3 2 2 3 3 2 3 6 2 1 3 3 2 4 10 13 14 14 14 15 16 15 15 15 14 14 13 12 12 12 10 9 10 9 9 8 8 8 8 8 8 8 8
1 5 4 5 2 0 2 2 3 5 4 3 3 5 1 2 3 5 7 9 13 13 13 13 15 16 17 17 15 15 14 14 14 13 12 11 9 8 8 8 8 7 6 6 5 6 7 7 7
5 3 4 4 1 0 1 4 4 2 3 5 3 3 1 2 5 7 7 7 13 14 12 15 14 14 14 16 16 15 13 13 13 12 11 11 9 8 8 8 9 8 6 4 4 4 4 4 5
4 3 4 3 2 2 3 3 1 1 2 3 4 3 3 1 1 2 4 7 8 10 4 11 10 7 9 13 14 13 13 12 12 12 11 10 9 7 8 8 8 8 7 5 3 3 2 2 2
5 4 4 4 2 2 2 5 1 2 1 1 6 4 2 2 3 1 2 3 4 9 12 13 13 9 3 8 12 12 11 10 10 10 10 9 8 7 6 6 6 6 6 5 4 3 2 1 0
4 4 3 2 3 4 2 3 1 3 2 1 4 3 4 4 8 6 6 7 10 12 13 11 14 17 16 14 9 9 10 10 9 9 8 8 7 6 6 6 5 4 3 3 3 3 3 3 2
3 4 1 3 5 3 1 1 1 1 0 2 3 0 4 16 13 10 7 6 7 9 9 8 7 9 7 9 8 8 9 9 9 9 8 7 6 5 5 5 5 4 4 3 2 2 2 3 3
4 3 6 2 2 2 2 0 2 1 1 1 1 3 10 15 15 12 10 6 5 6 5 6 7 7 6 6 7 8 10 11 11 9 8 7 6 6 7 2 3 4 3 4 4 2 2 3 4
2 3 2 3 3 2 2 3 2 2 5 7 7 7 7 9 11 12 11 11 8 7 5 7 7 7 7 7 9 8 7 6 7 9 8 9 7 5 5 3 3 3 3 3 4 5 1 2 3
3 1 1 3 2 2 3 2 4 5 7 2 8 10 8 9 9 13 14 14 12 9 6 6 6 7 8 10 12 12 11 10 9 9 10 8 9 7 7 5 4 3 3 2 2 2 2 2 3
1 3 5 3 6 5 4 6 6 8 10 6 4 10 11 9 13 14 14 14 14 12 9 7 7 8 13 15 14 13 12 12 12 11 10 9 9 8 7 5 3 3 2 1 3 5 4 4 4
3 4 8 6 5 4 4 3 3 6 4 7 6 10 8 8 13 12 15 16 15 13 12 11 13 14 14 15 14 12 10 10 10 9 7 6 5 5 4 3 2 0 2 3 5 5 6 6 6
2 4 6 1 2 2 1 6 8 7 7 5 7 7 7 8 13 18 22 20 17 15 14 14 14 14 13 12 11 11 10 9 9 9 6 5 5 4 4 3 1 2 3 4 4 4 5 6 7
3 4 5 3 2 0 3 8 8 5 5 7 7 7 7 7 14 20 21 18 16 16 16 15 14 13 12 11 10 10 10 9 8 7 6 6 5 5 3 3 3 3 4 4 3 3 4 5 7
6 2 2 7 2 1 2 7 6 1 5 8 8 8 8 7 7 17 21 18 18 18 17 16 14 14 13 12 12 11 10 9 9 7 6 6 6 5 4 4 4 5 5 5 4 3 3 5 8
3 4 3 4 3 2 5 18 12 9 6 10 8 8 7 8 10 22 22 19 20 19 17 16 16 14 13 13 12 12 10 9 8 7 7 6 5 5 4 4 4 4 4 4 6 6 5 7 9
2 2 5 5 6 3 6 14 18 9 7 9 10 9 9 10 9 23 24 23 22 20 19 18 17 15 15 14 12 10 10 9 9 7 6 6 5 5 4 4 4 4 4 6 6 6 7 7 10
2 4 6 6 2 2 8 13 24 9 7 8 9 10 11 6 8 13 25 27 27 26 22 18 16 15 15 13 10 8 12 8 8 6 6 6 7 7 6 6 5 4 3 3 5 7 5 4 8
2 3 4 4 7 4 6 7 6 4 4 4 5 9 8 14 13 12 18 26 28 27 25 21 17 14 13 12 11 13 10 8 6 6 6 6 6 7 9 9 9 8 7 7 6 7 7 5 5
4 2 2 5 5 2 5 5 8 7 9 6 9 11 6 9 10 13 19 21 29 30 25 21 18 15 12 12 12 12 10 6 4 4 5 5 4 5 6 8 8 8 7 7 8 7 6 5 4
6 1 3 0 1 3 4 3 7 5 6 8 10 11 9 4 11 15 19 24 25 28 25 21 18 15 13 11 10 9 9 7 6 5 3 2 3 3 3 6 6 6 6 6 7 7 8 7 6
3 3 4 3 3 2 3 4 6 2 3 7 6 11 9 2 5 6 14 18 21 26 24 21 18 14 12 11 10 8 9 9 7 4 2 1 0 0 3 4 6 7 6 7 7 8 8 8 8
3 4 3 5 4 4 1 1 8 5 3 2 6 9 9 3 6 8 10 17 23 27 25 21 18 15 12 10 9 8 8 8 6 4 3 2 2 2 3 4 7 7 7 8 10 10 9 8 10
1 3 4 5 2 4 3 6 4 2 5 2 3 5 6 4 4 5 8 15 18 23 26 23 20 17 13 10 10 9 8 8 5 4 2 1 0 1 3 7 8 8 9 11 11 10 10 11 12
2 2 2 2 1 2 4 7 7 2 4 6 6 7 8 7 2 7 10 15 17 25 26 24 21 17 14 11 10 9 8 6 5 3 1 1 2 3 7 9 8 9 9 9 9 11 12 11 14
3 4 3 2 1 4 6 5 6 3 4 5 5 6 6 5 4 5 9 16 20 24 24 22 19 18 15 12 10 9 7 5 4 3 1 1 3 6 11 7 7 8 9 9 10 11 11 13 13
2 2 1 3 4 4 3 5 5 5 4 3 4 2 1 2 4 3 6 15 22 23 22 21 19 17 15 13 11 10 8 5 3 1 1 1 4 7 9 8 8 10 12 11 12 12 13 12 13
3 7 6 4 5 3 2 7 2 6 4 2 5 3 2 3 4 5 11 12 18 23 22 21 19 17 14 12 10 8 6 3 1 0 0 1 3 6 7 8 11 13 13 13 14 14 12 14 18
Wind_Direction
3 359 345 26 52 64 15 15 296 13 8 324 312 93 108 75 9 273 337 275 198 171 161 163 158 159 160 159 156 151 147 145 146 147 135 128 122 119 117 109 107 105 98 109 103 97 91 92 90
357 350 39 80 78 58 288 291 52 274 32 132 103 97 51 87 327 2 349 35 184 168 161 165 158 154 154 152 153 153 149 147 148 147 141 135 127 122 123 118 116 115 113 112 108 101 98 98 96
31 37 77 86 105 146 192 243 263 282 313 181 94 47 84 189 310 291 262 161 171 172 165 166 161 154 149 150 150 150 148 146 144 145 143 137 131 134 135 133 130 130 119 112 107 102 99 102 106
7 24 40 76 76 254 218 294 296 327 345 42 105 63 51 309 297 293 277 189 173 170 167 167 166 160 156 152 150 147 147 147 147 148 148 146 144 139 145 153 150 145 128 114 113 108 100 101 109
37 52 63 87 333 211 281 290 319 340 341 1 9 170 143 314 327 311 212 201 184 170 176 177 165 158 155 155 155 153 153 153 152 148 153 154 149 146 150 159 163 160 154 140 130 115 106 98 102
34 89 63 134 220 222 259 257 192 12 321 339 73 128 241 307 334 316 239 205 181 158 66 237 158 147 160 164 159 156 154 155 159 158 155 156 158 156 154 158 161 166 167 169 160 150 136 124 103
102 73 159 150 227 267 260 329 76 211 321 25 143 146 276 248 149 125 108 116 164 162 170 178 154 159 167 226 164 156 161 164 163 162 161 160 161 156 152 153 165 174 178 183 188 186 191 171 199
99 90 116 205 190 229 283 321 196 205 259 95 137 198 258 203 165 156 121 102 110 143 164 142 161 164 173 198 151 156 162 166 165 167 171 173 169 170 167 167 172 179 206 202 199 214 220 231 253
107 60 166 208 165 225 314 11 314 316 310 58 5 354 299 151 154 147 134 115 115 118 140 139 124 121 136 141 157 162 164 168 170 169 164 171 170 166 160 157 156 160 184 189 208 214 254 251 252
77 108 214 213 199 230 293 260 306 308 244 287 7 34 145 157 162 155 151 148 135 127 142 145 131 129 128 120 109 164 178 173 168 162 161 156 169 175 176 127 176 179 185 218 201 195 255 276 277
155 176 218 248 208 207 234 260 234 218 264 213 200 183 181 173 171 161 159 157 150 134 138 129 136 135 130 114 110 115 147 176 182 165 168 180 186 186 177 156 152 142 94 116 184 138 49 320 302
347 244 251 277 260 240 256 317 287 212 232 233 214 178 170 175 186 178 168 161 155 152 145 142 148 148 140 132 119 106 101 106 122 129 131 144 138 130 138 130 120 105 84 73 58 44 49 332 347
18 325 316 292 306 274 313 257 249 259 249 267 149 164 188 183 187 187 176 165 160 160 154 148 146 139 136 138 129 119 110 105 107 118 118 119 123 123 123 118 109 101 90 29 357 359 345 317 303
310 299 288 303 296 253 247 298 6 282 317 237 171 195 198 194 185 174 177 173 172 167 158 148 140 139 136 133 133 125 121 114 117 110 104 108 110 116 128 134 135 152 340 341 333 318 310 306 313
319 327 317 237 322 279 46 309 238 285 316 268 216 210 204 214 195 190 187 185 179 169 160 154 147 143 140 137 134 136 130 124 113 108 110 102 96 96 99 97 79 15 335 316 312 310 312 309 304
27 51 2 313 100 308 112 261 271 316 173 218 224 222 212 215 207 208 196 189 179 169 160 155 154 148 142 142 139 137 132 127 113 100 96 92 86 75 75 74 56 28 359 346 325 308 307 315 317
4 275 269 315 214 277 177 274 267 348 207 229 224 215 212 209 209 205 195 189 178 171 165 159 155 150 145 139 135 127 119 112 101 95 88 75 66 64 64 63 50 37 38 35 25 6 335 332 333
264 304 265 248 310 311 276 271 271 273 247 249 243 242 225 206 206 196 190 188 177 170 168 164 157 153 144 138 132 124 115 101 95 85 70 61 62 63 53 48 39 22 6 5 10 9 354 343 341
328 303 276 255 272 270 257 274 279 253 266 256 246 232 224 220 196 189 187 181 175 173 171 170 165 160 159 151 145 138 128 117 107 87 70 68 59 57 50 42 33 30 24 30 16 359 349 346 351
237 281 262 285 244 236 303 292 280 272 242 236 246 241 228 181 166 168 178 180 180 176 176 174 174 171 173 172 168 154 144 127 112 91 82 74 65 58 57 52 47 38 34 31 22 18 3 338 2
275 243 320 280 325 287 313 293 320 323 339 352 326 270 234 197 175 171 177 179 181 178 179 178 177 180 183 186 172 156 150 134 119 106 92 73 64 60 54 45 42 39 32 35 27 18 14 349 329
298 201 258 303 19 290 36 283 308 337 327 358 353 348 269 192 175 167 175 179 182 183 179 177 174 173 173 173 174 167 166 152 131 107 87 84 69 58 50 42 45 39 28 22 17 11 3 348 338
228 331 301 333 98 23 336 67 267 340 328 342 343 348 341 219 173 180 182 181 180 181 176 175 171 169 169 172 180 175 155 142 140 135 121 91 72 67 37 23 15 7 2 354 349 348 353 355 339
334 346 41 58 100 14 234 132 281 295 289 314 338 340 339 236 191 166 166 168 170 176 174 171 167 161 162 162 159 159 151 146 147 153 171 157 221 294 13 339 340 346 344 346 344 334 321 330 334
84 59 331 343 7 228 112 74 256 302 321 309 314 325 333 323 169 159 157 161 162 171 170 167 164 155 158 157 150 146 145 143 135 126 119 100 75 40 346 323 327 330 332 329 326 322 313 309 301
103 146 159 236 263 278 315 242 251 238 292 324 352 315 339 16 147 150 161 161 160 163 170 168 166 159 161 158 150 147 146 143 131 127 117 103 79 271 318 315 315 315 318 320 319 313 306 301 296
153 188 175 99 103 29 251 290 305 296 316 348 6 3 349 355 158 151 145 151 154 165 173 172 169 164 163 160 157 152 150 147 138 128 166 206 195 289 311 308 307 313 319 324 322 318 316 310 303
167 160 76 16 246 265 283 274 240 265 268 328 360 358 352 17 79 118 136 147 161 174 175 174 171 167 164 161 158 152 152 153 158 143 249 236 295 316 314 313 320 326 324 319 313 314 316 314 306
144 226 86 130 158 190 281 257 214 217 213 254 292 309 314 108 129 117 136 156 167 175 174 171 170 168 165 162 157 154 152 168 161 176 241 255 331 336 339 337 333 330 328 323 312 310 312 311 304
212 204 166 162 226 225 218 273 267 226 218 219 254 276 240 163 171 168 157 159 163 169 174 173 171 171 168 164 161 160 157 157 179 334 224 302 328 335 332 333 327 323 326 323 315 311 313 313 310